| time (UTC) | temp F | wind direction | speed MPH | gust MPH | rain 1hr in | rain 24hr in | rain mn in | humidity % | barometer mb |
| 20260504025514 | 60 | 180 | 1.0 | 7.0 | 0.00 | 0.00 | 0.00 | 57 | 1012.5 |
| 20260504025016 | 60 | 159 | 1.0 | 7.0 | 0.00 | 0.00 | 0.00 | 57 | 1012.6 |
| 20260504024530 | 60 | 301 | 0.0 | 7.0 | 0.00 | 0.00 | 0.00 | 57 | 1012.5 |
| 20260504024015 | 60 | 0 | 0.0 | 8.0 | 0.00 | 0.00 | 0.00 | 57 | 1012.4 |
| 20260504023516 | 60 | 231 | 1.0 | 8.0 | 0.00 | 0.00 | 0.00 | 57 | 1012.3 |
| 20260504023034 | 60 | 214 | 1.0 | 5.0 | 0.00 | 0.00 | 0.00 | 57 | 1012.3 |
| 20260504022519 | 59 | 142 | 1.0 | 6.0 | 0.00 | 0.00 | 0.00 | 56 | 1012.3 |
| 20260504022016 | 59 | 146 | 1.0 | 6.0 | 0.00 | 0.00 | 0.00 | 57 | 1012.5 |
| 20260504021532 | 59 | 286 | 0.0 | 4.0 | 0.00 | 0.00 | 0.00 | 57 | 1012.4 |
| 20260504021016 | 59 | 254 | 1.0 | 4.0 | 0.00 | 0.00 | 0.00 | 57 | 1012.3 |
| 20260504020516 | 59 | 0 | 1.0 | 4.0 | 0.00 | 0.00 | 0.00 | 57 | 1012.5 |
| 20260504020033 | 60 | 0 | 0.0 | 3.0 | 0.00 | 0.00 | 0.00 | 56 | 1012.5 |
| 20260504015516 | 60 | 0 | 1.0 | 3.0 | 0.00 | 0.00 | 0.00 | 56 | 1012.5 |
| 20260504015018 | 60 | 0 | 0.0 | 3.0 | 0.00 | 0.00 | 0.00 | 56 | 1012.5 |
| 20260504014534 | 60 | 250 | 0.0 | 3.0 | 0.00 | 0.00 | 0.00 | 55 | 1012.7 |
| 20260504014015 | 60 | 0 | 0.0 | 2.0 | 0.00 | 0.00 | 0.00 | 56 | 1012.7 |
| 20260504013513 | 60 | 0 | 0.0 | 4.0 | 0.00 | 0.00 | 0.00 | 55 | 1012.7 |
| 20260504013035 | 60 | 0 | 0.0 | 4.0 | 0.00 | 0.00 | 0.00 | 55 | 1012.7 |
| 20260504012516 | 60 | 281 | 0.0 | 3.0 | 0.00 | 0.00 | 0.00 | 55 | 1012.6 |
| 20260504012016 | 61 | 0 | 0.0 | 3.0 | 0.00 | 0.00 | 0.00 | 55 | 1012.6 |
| 20260504011532 | 61 | 217 | 1.0 | 3.0 | 0.00 | 0.00 | 0.00 | 54 | 1012.5 |
| 20260504011011 | 61 | 0 | 0.0 | 3.0 | 0.00 | 0.00 | 0.00 | 53 | 1012.6 |
| 20260504010514 | 61 | 0 | 0.0 | 3.0 | 0.00 | 0.00 | 0.00 | 53 | 1012.6 |
| 20260504010030 | 62 | 0 | 0.0 | 3.0 | 0.00 | 0.00 | 0.00 | 53 | 1012.8 |
| 20260504005513 | 62 | 0 | 0.0 | 3.0 | 0.00 | 0.00 | 0.00 | 54 | 1012.7 |
| 20260504005014 | 62 | 237 | 0.0 | 3.0 | 0.00 | 0.00 | 0.00 | 53 | 1012.9 |
| 20260504004530 | 62 | 212 | 1.0 | 3.0 | 0.00 | 0.00 | 0.00 | 53 | 1012.9 |
| 20260504004014 | 62 | 0 | 0.0 | 3.0 | 0.00 | 0.00 | 0.00 | 52 | 1012.9 |
| 20260504003516 | 62 | 0 | 0.0 | 3.0 | 0.00 | 0.00 | 0.00 | 52 | 1013.0 |
| 20260504003032 | 62 | 225 | 0.0 | 3.0 | 0.00 | 0.00 | 0.00 | 52 | 1013.1 |
| 20260504002514 | 62 | 0 | 0.0 | 3.0 | 0.00 | 0.00 | 0.00 | 52 | 1013.1 |
| 20260504002012 | 62 | 0 | 0.0 | 6.0 | 0.00 | 0.00 | 0.00 | 51 | 1013.2 |
| 20260504001531 | 62 | 0 | 1.0 | 6.0 | 0.00 | 0.00 | 0.00 | 52 | 1013.2 |
| 20260504001014 | 62 | 136 | 0.0 | 5.0 | 0.00 | 0.00 | 0.00 | 51 | 1013.2 |
| 20260504000513 | 63 | 0 | 0.0 | 5.0 | 0.00 | 0.00 | 0.00 | 50 | 1013.3 |
| 20260504000030 | 63 | 195 | 2.0 | 8.0 | 0.00 | 0.00 | 0.00 | 49 | 1013.3 |
| 20260503235515 | 63 | 150 | 2.0 | 8.0 | 0.00 | 0.00 | 0.00 | 48 | 1013.3 |
| 20260503235014 | 64 | 94 | 3.0 | 7.0 | 0.00 | 0.00 | 0.00 | 49 | 1013.3 |
| 20260503234532 | 63 | 119 | 1.0 | 6.0 | 0.00 | 0.00 | 0.00 | 50 | 1013.3 |
| 20260503234014 | 64 | 178 | 2.0 | 8.0 | 0.00 | 0.00 | 0.00 | 48 | 1013.2 |
| 20260503233514 | 64 | 214 | 2.0 | 8.0 | 0.00 | 0.00 | 0.00 | 47 | 1012.9 |
| 20260503233037 | 64 | 140 | 2.0 | 8.0 | 0.00 | 0.00 | 0.00 | 47 | 1012.8 |
| 20260503232514 | 64 | 170 | 1.0 | 10.0 | 0.00 | 0.00 | 0.00 | 48 | 1012.8 |
| 20260503232014 | 64 | 187 | 1.0 | 10.0 | 0.00 | 0.00 | 0.00 | 49 | 1012.9 |
| 20260503231533 | 64 | 171 | 4.0 | 9.0 | 0.00 | 0.00 | 0.00 | 46 | 1012.9 |
| 20260503231014 | 64 | 154 | 4.0 | 9.0 | 0.00 | 0.00 | 0.00 | 47 | 1012.8 |
| 20260503230515 | 65 | 161 | 3.0 | 9.0 | 0.00 | 0.00 | 0.00 | 46 | 1012.9 |
| 20260503230030 | 65 | 151 | 3.0 | 9.0 | 0.00 | 0.00 | 0.00 | 47 | 1012.9 |
| 20260503225513 | 65 | 148 | 2.0 | 12.0 | 0.00 | 0.00 | 0.00 | 46 | 1013.1 |
| 20260503225014 | 65 | 81 | 3.0 | 13.0 | 0.00 | 0.00 | 0.00 | 49 | 1013.0 |
| 20260503224528 | 65 | 161 | 4.0 | 13.0 | 0.00 | 0.00 | 0.00 | 47 | 1013.0 |
| 20260503224015 | 65 | 0 | 4.0 | 13.0 | 0.00 | 0.00 | 0.00 | 47 | 1013.1 |
| 20260503223515 | 65 | 78 | 6.0 | 13.0 | 0.00 | 0.00 | 0.00 | 46 | 1013.2 |
| 20260503223032 | 65 | 135 | 4.0 | 11.0 | 0.00 | 0.00 | 0.00 | 48 | 1013.0 |
| 20260503222514 | 65 | 196 | 4.0 | 11.0 | 0.00 | 0.00 | 0.00 | 48 | 1013.0 |
| 20260503222013 | 66 | 239 | 1.0 | 8.0 | 0.00 | 0.00 | 0.00 | 49 | 1013.0 |
| 20260503221536 | 66 | 229 | 3.0 | 10.0 | 0.00 | 0.00 | 0.00 | 50 | 1013.1 |
| 20260503221012 | 65 | 125 | 2.0 | 10.0 | 0.00 | 0.00 | 0.00 | 50 | 1013.3 |
| 20260503220514 | 65 | 128 | 3.0 | 11.0 | 0.00 | 0.00 | 0.00 | 47 | 1013.4 |
| 20260503220032 | 65 | 74 | 5.0 | 11.0 | 0.00 | 0.00 | 0.00 | 49 | 1013.5 |
| 20260503215515 | 65 | 65 | 4.0 | 10.0 | 0.00 | 0.00 | 0.00 | 49 | 1013.6 |
| 20260503215016 | 66 | 83 | 3.0 | 10.0 | 0.00 | 0.00 | 0.00 | 50 | 1013.7 |
| 20260503214530 | 65 | 66 | 2.0 | 15.0 | 0.00 | 0.00 | 0.00 | 49 | 1013.6 |
| 20260503214016 | 65 | 294 | 3.0 | 15.0 | 0.00 | 0.00 | 0.00 | 49 | 1013.8 |
| 20260503213515 | 65 | 129 | 3.0 | 11.0 | 0.00 | 0.00 | 0.00 | 49 | 1013.8 |
| 20260503213036 | 65 | 200 | 2.0 | 11.0 | 0.00 | 0.00 | 0.00 | 49 | 1013.9 |
| 20260503212515 | 65 | 173 | 3.0 | 13.0 | 0.00 | 0.00 | 0.00 | 49 | 1013.9 |
| 20260503212015 | 65 | 185 | 4.0 | 13.0 | 0.00 | 0.00 | 0.00 | 47 | 1014.1 |
| 20260503211530 | 65 | 86 | 4.0 | 13.0 | 0.00 | 0.00 | 0.00 | 49 | 1014.2 |
| 20260503211015 | 65 | 141 | 4.0 | 13.0 | 0.00 | 0.00 | 0.00 | 49 | 1014.4 |
| 20260503210515 | 65 | 271 | 5.0 | 13.0 | 0.00 | 0.00 | 0.00 | 47 | 1014.5 |
| 20260503210032 | 65 | 153 | 4.0 | 14.0 | 0.00 | 0.00 | 0.00 | 50 | 1014.7 |
| 20260503205514 | 65 | 112 | 5.0 | 14.0 | 0.00 | 0.00 | 0.00 | 48 | 1014.9 |
| 20260503205016 | 64 | 120 | 3.0 | 18.0 | 0.00 | 0.00 | 0.00 | 48 | 1015.0 |
| 20260503204536 | 64 | 134 | 6.0 | 18.0 | 0.00 | 0.00 | 0.00 | 48 | 1015.2 |
| 20260503204016 | 64 | 121 | 4.0 | 14.0 | 0.00 | 0.00 | 0.00 | 47 | 1015.5 |
| 20260503203515 | 65 | 136 | 5.0 | 14.0 | 0.00 | 0.00 | 0.00 | 49 | 1015.6 |
| 20260503203031 | 64 | 67 | 4.0 | 12.0 | 0.00 | 0.00 | 0.00 | 48 | 1015.6 |
| 20260503202516 | 64 | 147 | 5.0 | 13.0 | 0.00 | 0.00 | 0.00 | 51 | 1015.8 |
| 20260503202013 | 64 | 130 | 4.0 | 21.0 | 0.00 | 0.00 | 0.00 | 48 | 1016.0 |
| 20260503201534 | 64 | 168 | 5.0 | 21.0 | 0.00 | 0.00 | 0.00 | 48 | 1016.1 |
| 20260503201016 | 65 | 67 | 5.0 | 11.0 | 0.00 | 0.00 | 0.00 | 49 | 1016.1 |
| 20260503200519 | 64 | 161 | 3.0 | 9.0 | 0.00 | 0.00 | 0.00 | 48 | 1015.8 |
| 20260503200032 | 64 | 113 | 3.0 | 12.0 | 0.00 | 0.00 | 0.00 | 47 | 1015.8 |
| 20260503195515 | 64 | 142 | 4.0 | 13.0 | 0.00 | 0.00 | 0.00 | 48 | 1016.1 |
| 20260503195020 | 64 | 111 | 4.0 | 15.0 | 0.00 | 0.00 | 0.00 | 51 | 1016.3 |
| 20260503194530 | 64 | 170 | 7.0 | 15.0 | 0.00 | 0.00 | 0.00 | 49 | 1016.2 |
| 20260503194015 | 64 | 140 | 5.0 | 12.0 | 0.00 | 0.00 | 0.00 | 49 | 1016.3 |
| 20260503193518 | 64 | 147 | 4.0 | 12.0 | 0.00 | 0.00 | 0.00 | 52 | 1016.3 |
| 20260503193030 | 63 | 174 | 5.0 | 14.0 | 0.00 | 0.00 | 0.00 | 50 | 1016.4 |
| 20260503192514 | 64 | 30 | 5.0 | 14.0 | 0.00 | 0.00 | 0.00 | 50 | 1016.7 |
| 20260503192015 | 63 | 154 | 4.0 | 14.0 | 0.00 | 0.00 | 0.00 | 50 | 1016.7 |
| 20260503191536 | 63 | 123 | 5.0 | 17.0 | 0.00 | 0.00 | 0.00 | 51 | 1016.7 |
| 20260503191015 | 63 | 138 | 6.0 | 17.0 | 0.00 | 0.00 | 0.00 | 47 | 1016.7 |
| 20260503190516 | 63 | 78 | 6.0 | 17.0 | 0.00 | 0.00 | 0.00 | 49 | 1016.8 |
| 20260503190030 | 63 | 88 | 2.0 | 15.0 | 0.00 | 0.00 | 0.00 | 54 | 1017.0 |
| 20260503185515 | 63 | 140 | 5.0 | 15.0 | 0.00 | 0.00 | 0.00 | 49 | 1017.2 |
| 20260503185015 | 63 | 120 | 4.0 | 15.0 | 0.00 | 0.00 | 0.00 | 53 | 1017.4 |
| 20260503184532 | 63 | 83 | 3.0 | 15.0 | 0.00 | 0.00 | 0.00 | 51 | 1017.5 |
| 20260503184014 | 62 | 146 | 6.0 | 15.0 | 0.00 | 0.00 | 0.00 | 47 | 1017.8 |
| 20260503183514 | 63 | 140 | 5.0 | 10.0 | 0.00 | 0.00 | 0.00 | 48 | 1017.8 |
| 20260503183030 | 63 | 253 | 3.0 | 10.0 | 0.00 | 0.00 | 0.00 | 55 | 1018.0 |
| 20260503182515 | 63 | 253 | 2.0 | 8.0 | 0.00 | 0.00 | 0.00 | 51 | 1018.0 |
| 20260503182016 | 62 | 243 | 2.0 | 12.0 | 0.00 | 0.00 | 0.00 | 54 | 1018.0 |
| 20260503181530 | 62 | 94 | 2.0 | 12.0 | 0.00 | 0.00 | 0.00 | 51 | 1018.2 |
| 20260503181015 | 62 | 240 | 4.0 | 12.0 | 0.00 | 0.00 | 0.00 | 51 | 1018.4 |
| 20260503180516 | 62 | 153 | 5.0 | 11.0 | 0.00 | 0.00 | 0.00 | 52 | 1018.4 |
| 20260503180032 | 62 | 129 | 4.0 | 14.0 | 0.00 | 0.00 | 0.00 | 54 | 1018.6 |
| 20260503175516 | 62 | 99 | 5.0 | 14.0 | 0.00 | 0.00 | 0.00 | 53 | 1018.6 |
| 20260503175015 | 62 | 160 | 5.0 | 14.0 | 0.00 | 0.00 | 0.00 | 53 | 1018.6 |
| 20260503174532 | 61 | 115 | 6.0 | 14.0 | 0.00 | 0.00 | 0.00 | 55 | 1018.7 |
| 20260503174014 | 61 | 130 | 5.0 | 12.0 | 0.00 | 0.00 | 0.00 | 50 | 1018.8 |
| 20260503173514 | 61 | 189 | 5.0 | 12.0 | 0.00 | 0.00 | 0.00 | 51 | 1018.9 |
| 20260503173038 | 62 | 126 | 2.0 | 7.0 | 0.00 | 0.00 | 0.00 | 53 | 1019.0 |
| 20260503172516 | 62 | 254 | 1.0 | 13.0 | 0.00 | 0.00 | 0.00 | 54 | 1019.0 |
| 20260503172015 | 61 | 101 | 4.0 | 13.0 | 0.00 | 0.00 | 0.00 | 55 | 1019.1 |
| 20260503171531 | 61 | 153 | 2.0 | 11.0 | 0.00 | 0.00 | 0.00 | 49 | 1019.4 |
| 20260503171017 | 61 | 175 | 3.0 | 11.0 | 0.00 | 0.00 | 0.00 | 53 | 1019.3 |
| 20260503170515 | 61 | 176 | 4.0 | 16.0 | 0.00 | 0.00 | 0.00 | 53 | 1019.6 |
| 20260503151014 | 58 | 55 | 2.0 | 9.0 | 0.00 | 0.00 | 0.00 | 58 | 1020.3 |
| 20260503150514 | 58 | 267 | 1.0 | 6.0 | 0.00 | 0.00 | 0.00 | 62 | 1020.4 |
| 20260503131018 | 49 | 144 | 2.0 | 6.0 | 0.00 | 0.00 | 0.00 | 71 | 1020.6 |
| 20260503130518 | 49 | 0 | 0.0 | 4.0 | 0.00 | 0.00 | 0.00 | 75 | 1020.6 |
| 20260503110515 | 35 | 0 | 0.0 | 0.0 | 0.00 | 0.00 | 0.00 | 91 | 1020.1 |
| 20260503081531 | 36 | 0 | 0.0 | 0.0 | 0.00 | 0.00 | 0.00 | 88 | 1019.8 |
| 20260503081017 | 36 | 0 | 0.0 | 0.0 | 0.00 | 0.00 | 0.00 | 88 | 1019.8 |
| 20260503080514 | 36 | 0 | 0.0 | 0.0 | 0.00 | 0.00 | 0.00 | 88 | 1019.8 |
| 20260503072515 | 36 | 0 | 0.0 | 0.0 | 0.00 | 0.00 | 0.00 | 87 | 1019.9 |
| 20260503072012 | 36 | 0 | 0.0 | 0.0 | 0.00 | 0.00 | 0.00 | 87 | 1019.9 |
| 20260503071536 | 36 | 0 | 0.0 | 0.0 | 0.00 | 0.00 | 0.00 | 87 | 1020.0 |
| 20260503071016 | 36 | 0 | 0.0 | 0.0 | 0.00 | 0.00 | 0.00 | 87 | 1019.9 |
| 20260503070513 | 36 | 0 | 0.0 | 0.0 | 0.00 | 0.00 | 0.00 | 86 | 1019.9 |
| 20260503055014 | 37 | 0 | 0.0 | 0.0 | 0.00 | 0.00 | 0.00 | 83 | 1020.4 |
| 20260503054535 | 38 | 0 | 0.0 | 0.0 | 0.00 | 0.00 | 0.00 | 83 | 1020.4 |
| 20260503054015 | 38 | 0 | 0.0 | 0.0 | 0.00 | 0.00 | 0.00 | 83 | 1020.4 |
| 20260503053513 | 38 | 0 | 0.0 | 0.0 | 0.00 | 0.00 | 0.00 | 83 | 1020.4 |
| 20260503053033 | 38 | 0 | 0.0 | 0.0 | 0.00 | 0.00 | 0.00 | 82 | 1020.4 |
| 20260503052514 | 38 | 0 | 0.0 | 0.0 | 0.00 | 0.00 | 0.00 | 82 | 1020.3 |
| 20260503052017 | 38 | 0 | 0.0 | 0.0 | 0.00 | 0.00 | 0.00 | 82 | 1020.4 |
| 20260503051535 | 38 | 0 | 0.0 | 0.0 | 0.00 | 0.00 | 0.00 | 81 | 1020.4 |
| 20260503051012 | 38 | 0 | 0.0 | 0.0 | 0.00 | 0.00 | 0.00 | 81 | 1020.4 |
| 20260503050514 | 38 | 0 | 0.0 | 0.0 | 0.00 | 0.00 | 0.00 | 81 | 1020.4 |
| 20260503050037 | 38 | 0 | 0.0 | 0.0 | 0.00 | 0.00 | 0.00 | 81 | 1020.4 |
| 20260503045514 | 39 | 0 | 0.0 | 0.0 | 0.00 | 0.00 | 0.00 | 80 | 1020.4 |
| 20260503045018 | 39 | 0 | 0.0 | 0.0 | 0.00 | 0.00 | 0.00 | 80 | 1020.4 |
| 20260503044532 | 39 | 0 | 0.0 | 0.0 | 0.00 | 0.00 | 0.00 | 80 | 1020.3 |
| 20260503044013 | 39 | 0 | 0.0 | 0.0 | 0.00 | 0.00 | 0.00 | 79 | 1020.3 |
| 20260503043513 | 39 | 0 | 0.0 | 0.0 | 0.00 | 0.00 | 0.00 | 79 | 1020.4 |
| 20260503043031 | 39 | 0 | 0.0 | 0.0 | 0.00 | 0.00 | 0.00 | 78 | 1020.4 |
| 20260503042514 | 39 | 0 | 0.0 | 0.0 | 0.00 | 0.00 | 0.00 | 78 | 1020.3 |
| 20260503042014 | 39 | 0 | 0.0 | 0.0 | 0.00 | 0.00 | 0.00 | 77 | 1020.2 |
| 20260503041537 | 40 | 0 | 0.0 | 0.0 | 0.00 | 0.00 | 0.00 | 76 | 1020.2 |
| 20260503041013 | 40 | 0 | 0.0 | 0.0 | 0.00 | 0.00 | 0.00 | 76 | 1020.3 |
| 20260503040513 | 40 | 0 | 0.0 | 0.0 | 0.00 | 0.00 | 0.00 | 74 | 1020.3 |
| 20260503040029 | 40 | 0 | 0.0 | 0.0 | 0.00 | 0.00 | 0.00 | 74 | 1020.3 |
| 20260503035513 | 40 | 0 | 0.0 | 0.0 | 0.00 | 0.00 | 0.00 | 73 | 1020.3 |
| 20260503035013 | 40 | 0 | 0.0 | 0.0 | 0.00 | 0.00 | 0.00 | 73 | 1020.2 |
| 20260503034531 | 40 | 0 | 0.0 | 0.0 | 0.00 | 0.00 | 0.00 | 72 | 1020.2 |
| 20260503034015 | 41 | 0 | 0.0 | 0.0 | 0.00 | 0.00 | 0.00 | 71 | 1020.3 |
| 20260503033515 | 41 | 0 | 0.0 | 0.0 | 0.00 | 0.00 | 0.00 | 71 | 1020.4 |
| 20260503033033 | 41 | 0 | 0.0 | 0.0 | 0.00 | 0.00 | 0.00 | 70 | 1020.3 |
| 20260503032518 | 41 | 0 | 0.0 | 0.0 | 0.00 | 0.00 | 0.00 | 70 | 1020.3 |
| 20260503032015 | 42 | 0 | 0.0 | 0.0 | 0.00 | 0.00 | 0.00 | 70 | 1020.3 |
| 20260503031531 | 42 | 0 | 0.0 | 0.0 | 0.00 | 0.00 | 0.00 | 70 | 1020.2 |
| 20260503031014 | 42 | 0 | 0.0 | 0.0 | 0.00 | 0.00 | 0.00 | 69 | 1020.2 |
| 20260503030513 | 42 | 0 | 0.0 | 0.0 | 0.00 | 0.00 | 0.00 | 69 | 1020.2 |
| 20260503030044 | 43 | 0 | 0.0 | 0.0 | 0.00 | 0.00 | 0.00 | 69 | 1020.3 |